Weather History for Mansfield, OH

Change the Weather History Date:

Tuesday, July 23, 2013

  Actual Average Record
Temperature  
Mean Temperature 74 °F 72 °F  
Max Temperature 85 °F 82 °F 99 °F (1933)
Min Temperature 62 °F 61 °F 48 °F (1944)
Degree Days  
Heating Degree Days 0 0  
Month to date heating degree days 0 0  
Since 1 June heating degree days 39 53  
Since 1 July heating degree days 0 0  
Cooling Degree Days 9 7  
Month to date cooling degree days 231 161  
Year to date cooling degree days 474 341  
Since 1 June cooling degree days 379 295  
Growing Degree Days 23 (Base 50)    
Moisture  
Dew Point 66 °F    
Average Humidity 78    
Maximum Humidity 100    
Minimum Humidity 55    
Precipitation  
Precipitation 0.00 in 0.15 in 1.37 in (2011)
Month to date precipitation 5.63 3.30  
Year to date precipitation 26.49 25.38  
Snow  
Snow 0.00 in 0.00 in - ()
Month to date snowfall 0.0 0.0  
Since 1 June snowfall 0.0 0.0  
Since 1 July snowfall 0.0 0.0  
Snow Depth 0.00 in    
Sea Level Pressure  
Sea Level Pressure 29.79 in    
Wind  
Wind Speed 8 mph (SW)    
Max Wind Speed 18 mph    
Max Gust Speed 24 mph    
Visibility 4 miles    
Events Fog    
T = Trace of Precipitation, MM = Missing Value Source: NWS Daily Summary

Daily Weather History Graph

Daily Weather History Graph

Search for Another Location

Airport:

Trip Planner

Search our weather history database for the weather conditions in past years. The results will help you decide how hot, cold, wet, or windy it might be!

Date:

Astronomy

Jul. 23, 2013 Rise Set
Actual Time 6:18 AM EDT 8:54 PM EDT
Civil Twilight 5:46 AM EDT 9:25 PM EDT
Nautical Twilight 5:07 AM EDT 10:05 PM EDT
Astronomical Twilight 4:22 AM EDT 10:49 PM EDT
Moon 9:20 PM EDT 7:26 AM EDT
Length of Visible Light 15h 39m
Length of Day
14h 35m
Full, 99% of the Moon is Illuminated
Jul 23
Full
Jul 29
Last Quarter
Aug 6
New
Aug 14
First Quarter
Aug 20
Full

Hourly Weather History & Observations

Time (EDT) Temp. Heat Index Dew Point Humidity Pressure Visibility Wind Dir Wind Speed Gust Speed Precip Events Conditions
12:05 AM 64.4 °F - 64.4 °F 100% 29.84 in 1.5 mi Calm Calm - N/A   Partly Cloudy
12:21 AM 64.4 °F - 64.4 °F 100% 29.84 in 2.5 mi Calm Calm - N/A   Clear
12:28 AM 62.6 °F - 62.6 °F 100% 29.84 in 1.5 mi Calm Calm - N/A   Partly Cloudy
12:32 AM 64.4 °F - 64.4 °F 100% 29.84 in 0.8 mi Calm Calm - N/A   Mist
12:47 AM 64.4 °F - 64.4 °F 100% 29.83 in 2.0 mi Calm Calm - N/A   Scattered Clouds
12:52 AM 64.0 °F - 64.0 °F 100% 29.81 in 3.0 mi Calm Calm - N/A   Scattered Clouds
1:08 AM 64.4 °F - 64.4 °F 100% 29.83 in 1.8 mi Calm Calm - N/A   Clear
1:48 AM 62.6 °F - 62.6 °F 100% 29.83 in 0.5 mi Calm Calm - N/A Fog Fog
1:52 AM 63.0 °F - 63.0 °F 100% 29.81 in 0.5 mi WSW 3.5 mph - N/A Fog Fog
2:03 AM 64.4 °F - 64.4 °F 100% 29.83 in 2.0 mi SW 4.6 mph - N/A   Clear
2:21 AM 62.6 °F - 62.6 °F 100% 29.83 in 1.0 mi WSW 3.5 mph - N/A   Clear
2:36 AM 64.4 °F - 64.4 °F 100% 29.83 in 3.0 mi WSW 4.6 mph - N/A   Clear
2:52 AM 63.0 °F - 63.0 °F 100% 29.81 in 2.5 mi WSW 3.5 mph - N/A   Clear
3:01 AM 64.4 °F - 64.4 °F 100% 29.83 in 3.0 mi WSW 4.6 mph - N/A   Clear
3:35 AM 62.6 °F - 62.6 °F 100% 29.82 in 1.8 mi Calm Calm - N/A   Clear
3:39 AM 62.6 °F - 62.6 °F 100% 29.82 in 0.8 mi Calm Calm - N/A   Mist
3:52 AM 62.1 °F - 62.1 °F 100% 29.81 in 0.5 mi SSW 3.5 mph - N/A Fog Fog
4:47 AM 62.6 °F - 62.6 °F 100% 29.80 in 1.2 mi SSW 3.5 mph - N/A   Clear
4:52 AM 62.1 °F - 62.1 °F 100% 29.78 in 0.8 mi SSW 3.5 mph - N/A   Clear
5:16 AM 62.6 °F - 62.6 °F 100% 29.80 in 2.0 mi SSW 4.6 mph - N/A   Clear
5:31 AM 62.6 °F - 62.6 °F 100% 29.81 in 1.2 mi SSW 4.6 mph - N/A   Clear
5:42 AM 62.6 °F - 62.6 °F 100% 29.81 in 2.0 mi SSW 4.6 mph - N/A   Clear
5:52 AM 62.1 °F - 62.1 °F 100% 29.79 in 2.5 mi SSW 4.6 mph - N/A   Clear
6:11 AM 62.6 °F - 62.6 °F 100% 29.81 in 0.8 mi SSW 3.5 mph - N/A   Clear
6:26 AM 62.6 °F - 62.6 °F 100% 29.81 in 1.0 mi SSW 4.6 mph - N/A   Mist
6:28 AM 62.6 °F - 62.6 °F 100% 29.81 in 0.8 mi SSW 4.6 mph - N/A   Mist
6:38 AM 62.6 °F - 62.6 °F 100% 29.82 in 0.2 mi SW 5.8 mph - N/A Fog Fog
6:50 AM 64.4 °F - 64.4 °F 100% 29.82 in 0.2 mi SSW 4.6 mph - N/A Fog Fog
6:52 AM 64.0 °F - 64.0 °F 100% 29.80 in 0.5 mi SSW 4.6 mph - N/A Fog Fog
7:22 AM 64.4 °F - 64.4 °F 100% 29.82 in 1.0 mi SSW 3.5 mph - N/A   Mist
7:52 AM 66.9 °F - 66.9 °F 100% 29.79 in 1.5 mi SSW 5.8 mph - N/A   Mostly Cloudy
8:18 AM 68.0 °F - 68.0 °F 100% 29.81 in 0.5 mi SSW 4.6 mph - N/A Fog Fog
8:26 AM 68.0 °F - 68.0 °F 100% 29.81 in 0.8 mi South 5.8 mph - N/A   Overcast
8:35 AM 69.8 °F - 69.8 °F 100% 29.81 in 2.0 mi SW 4.6 mph - N/A   Overcast
8:45 AM 69.8 °F - 69.8 °F 100% 29.80 in 4.0 mi South 6.9 mph - N/A   Mostly Cloudy
8:52 AM 70.0 °F - 69.1 °F 97% 29.78 in 5.0 mi South 4.6 mph - N/A   Scattered Clouds
9:52 AM 75.0 °F - 69.1 °F 82% 29.79 in 10.0 mi WSW 6.9 mph - N/A   Partly Cloudy
10:52 AM 77.0 °F - 69.1 °F 76% 29.78 in 10.0 mi WSW 11.5 mph - N/A   Scattered Clouds
11:52 AM 80.1 °F 83.2 °F 70.0 °F 71% 29.78 in 10.0 mi SW 10.4 mph - N/A   Scattered Clouds
12:38 PM 82.4 °F 87.2 °F 71.6 °F 70% 29.80 in 10.0 mi SW 12.7 mph - N/A   Mostly Cloudy
12:52 PM 81.0 °F 84.4 °F 70.0 °F 69% 29.77 in 10.0 mi SW 12.7 mph 18.4 mph N/A   Mostly Cloudy
1:00 PM 82.4 °F 86.3 °F 69.8 °F 66% 29.79 in 10.0 mi SW 12.7 mph - N/A   Mostly Cloudy
1:27 PM 82.4 °F 87.2 °F 71.6 °F 70% 29.78 in 10.0 mi SW 12.7 mph 17.3 mph N/A   Mostly Cloudy
1:44 PM 84.2 °F 89.6 °F 71.6 °F 66% 29.77 in 10.0 mi WSW 12.7 mph 19.6 mph N/A   Scattered Clouds
1:52 PM 84.0 °F 89.0 °F 71.1 °F 65% 29.74 in 10.0 mi SW 11.5 mph 19.6 mph N/A   Scattered Clouds
2:52 PM 84.9 °F 89.4 °F 70.0 °F 61% 29.72 in 10.0 mi West 12.7 mph 23.0 mph N/A   Partly Cloudy
3:52 PM 84.9 °F 87.6 °F 66.9 °F 55% 29.70 in 10.0 mi West 12.7 mph 21.9 mph N/A   Partly Cloudy
4:52 PM 82.9 °F 85.8 °F 68.0 °F 60% 29.70 in 10.0 mi West 10.4 mph - N/A   Scattered Clouds
5:52 PM 82.0 °F 84.9 °F 68.0 °F 62% 29.70 in 10.0 mi WNW 9.2 mph - N/A   Partly Cloudy
6:52 PM 81.0 °F 83.3 °F 66.9 °F 62% 29.69 in 10.0 mi West 10.4 mph - N/A   Partly Cloudy
7:52 PM 79.0 °F - 66.9 °F 66% 29.72 in 10.0 mi WNW 9.2 mph - N/A   Scattered Clouds
8:52 PM 73.0 °F - 66.0 °F 79% 29.73 in 10.0 mi North 10.4 mph - N/A   Partly Cloudy
9:52 PM 71.1 °F - 66.9 °F 87% 29.76 in 10.0 mi NNW 5.8 mph - N/A   Scattered Clouds
10:52 PM 71.1 °F - 66.0 °F 84% 29.78 in 10.0 mi WNW 5.8 mph - N/A   Mostly Cloudy
11:52 PM 69.1 °F - 66.0 °F 90% 29.80 in 10.0 mi NNW 9.2 mph - N/A   Scattered Clouds